STARLINK-11146, 60729

Orbit data source: Space-Track

STARLINK-11146, 60729 is a payload satellite owned by SpaceX/Seattle (US) in LEO that was launched on Wed, 28 Aug 2024 UTC via an FALCON 9 launch vehicle from the Air Force Eastern Test Range (AFETR). Payloads include a variety of satellites, spacecraft, and rockets equipped with specific instruments for various scientific and technological missions. These include communications satellites like Starlink; space stations such as the ISS; scientific satellites like the Hubble; Earth observation satellites from companies like Planet Labs, Umbra, and HawkEye 360; GPS; miniature CubeSats for education and research; and military/defense satellites.

Loading next visibility...
STARLINK-11146 details
Identifier
60729, 2024-152K
Orbit
LEO
Last TLE update21 hours ago
Origin
Flag of USSpaceX/Seattle (US)
ManufacturerSpaceX/Seattle
MissionOperational spacecraft
Bus & MotorSTARLINK V2M, Unknown motor
Mass730 kg wet, ~700 kg dry
Launch date (UTC)
2024-08-28 (4 months ago)
Launch vehicle
FALCON 9
Launch site
Air Force Eastern Test Range (AFETR)
Object type
Payload
Rocket body
Debris
Shape & HBRUnknown
Radar Cross SectionLarge (>1 m²)

Expand to show TLE details & history

TLE from 21 hours ago
0 STARLINK-11146
1 60729U 24152K   24355.69762538 -.00002926  00000-0 -19283-4 0  9991
2 60729  53.1587 144.7791 0001217  38.1929 321.9175 15.69729094 19236
Epoch: 2024-12-20T16:44Z
Definitive object data (Epoch: 2024-12-20T16:44:34.832Z)
Latitude-0.00004°
Longitude163.87453°
Altitude359.942 km
Speed7.695 km/s
True Right ascension09h 39m 06s
True Declination0° 00' 00"
Sunlit
Object was in full shadow at TLE epoch
Visualization TLE readout
Latitude-22.53149°
Longitude141.50019°
Altitude365.807 km
Speed7.69 km/s
Apparent Right ascension05h 12m 50s
Apparent Declination-44° 36' 15"
Sunlit
Object is in full shadow
Visualization observer readout
Local Sidereal Time13:02:57
Azimuth242.588° WSW
Elevation-44.664°
Doppler factor1
Orbital elements
Apogee altitude360.753 km
Perigee altitude359.113 km
Semi-major axis6,738.07 km
Eccentricity0.0001217
Inclination53.1587°
RAAN144.7791°
Arg. of periapsis38.1929°
True anomaly321.9089°
Mean anomaly321.9175°
Eccentric anomaly321.9132°
Mean motion3.9241 °/min
BSTAR-0.000019283
Orbital period91.74 mins
Loading maneuver chart data...
Loading historical data...
Loading historical data...
Loading historical data...
Loading historical data...
Loading historical data...
Loading historical data...
Loading historical data...

STARLINK-11146 Visibility forecast

Observer location: undefined°, undefined

Span
Click to sort rows by Start time (UTC) header in descending order
Start Az.
Max El. time (UTC)
Max El. Az.
Max El.
End time (UTC)
End Az.
5 mins2024-12-21 19:11:53.493Z322.034° NNW2024-12-21 19:14:53.493Z64.987° ENE33.824°2024-12-21 19:16:53.493Z109.231° ESE
|